Location: Banff
(51.1667°N, 115.5667°W)
Time: 13:38:32
(UTC+00:00)

Vanguard 1 Rocket - Pass Details

Date: 29 November 2020
Orbit: 655 x 4222 km, 34.3° (Epoch: 23 January)

Event Time Altitude Azimuth Distance (km) Brightness Sun altitude
Rises 14:40:08 0° 275° (W) 7,751 - -6.5°
Exits shadow 14:40:54 - 274° (W) 7,588 11.5 -6.4°
Reaches altitude 10° 14:47:37 10° 264° (W) 6,127 11.1 -5.5°
Maximum altitude 14:59:05 22° 223° (SW) 4,015 10.6 -3.9°
Drops below altitude 10° 15:06:48 10° 178° (S) 3,947 11.2 -2.9°
Sets 15:10:16 0° 163° (SSE) 4,474 11.8 -2.4°
